Regional Weather Roundup
Issued by NWS

Home | Current Version | Previous Version | Text Only | Print | Product List | Glossary On
Versions: 1 2 3 4 5 6 7 8 9 10 11 12 13 14 15 16 17 18 19 20 21 22 23 24 25 26 27 28 29 30 31 32 33 34 35 36 37 38 39 40 41 42 43 44 45 46 47 48 49 50
000
ASHW40 PHFO 300943
RWRHI

WEATHER ROUNDUP FOR HAWAII
NATIONAL WEATHER SERVICE HONOLULU HI
1100 PM HST MON MAY 29 2017

THIS IS AN AUTOMATED REPORT THAT HAS NOT BEEN QUALITY CONTROLLED.

NOTE..."FAIR" INDICATES FEW OR NO CLOUDS BELOW 12,000 FEET WITH NO
SIGNIFICANT WEATHER AND/OR OBSTRUCTIONS TO VISIBILITY.

* - THESE SITES REPORT LIMITED FIELDS

HIZ001>004-301000-
KAUAI-NIIHAU-

CITY           SKY/WX    TMP DP  RH WIND       PRES   REMARKS
LIHUE APT      CLOUDY    77  68  73 VRB3      30.13R
PORT ALLEN*      N/A     73 N/A N/A NE9         N/A
POIPU*           N/A     70 N/A N/A NW2         N/A
PRINCEVILLE*     N/A     70 N/A N/A S3          N/A
KOKOLE POINT*  NOT AVBL
MOLOAA DAIRY*    N/A     72  66  83 CALM        N/A
WAIMEA HTS*      N/A    N/A N/A N/A VRB3        N/A
PUU OPAE*      NOT AVBL
PUU LUA*       NOT AVBL
MAKAHA RIDGE*    N/A     68  64  88 S1          N/A
$$

HIZ005>011-301000-
OAHU-

CITY           SKY/WX    TMP DP  RH WIND       PRES   REMARKS
HONOLULU       PTCLDY    76  66  71 CALM      30.10R
KALAELOA       CLEAR     74  64  71 NE5       30.11S
KANEOHE MCB    NOT AVBL
WHEELER FIELD  FAIR      69  65  87 NW5       30.10S
BELLOWS*         N/A    N/A N/A N/A NE9         N/A
KAHUKU*          N/A    N/A N/A N/A E3          N/A
WHEELER*         N/A    N/A N/A N/A N3          N/A
WAIANAE HARBOR   N/A    N/A N/A N/A NE3         N/A
DILLINGHAM*      N/A     90  82  79 NW2         N/A  HX 111
KAHUKU TRN*      N/A     72  70  94 W3G9        N/A
KAWAILOA*        N/A     70  66  88 E3G9        N/A
KII*             N/A     77  70  78 NE9         N/A
MAKUA RANGE*     N/A    N/A N/A N/A NW3         N/A
OAHU FOREST NW   N/A     70  64  83 NE13G18     N/A
SCHOFIELD BRK*   N/A     66  63  88 MISG        N/A
SCHOFIELD S*   NOT AVBL
WAIANAE VLY*     N/A     66  63  88 NW5         N/A
KUAOKALA*        N/A     72  64  78 E6G12       N/A
HONOULIUULI*   NOT AVBL
MOKUOLOE IS*   NOT AVBL
PALEHUA*         N/A     66  63  88 NE8G14      N/A
WAIAWA PHB*    NOT AVBL
$$

HIZ012>013-301000-
MOLOKAI-

CITY           SKY/WX    TMP DP  RH WIND       PRES   REMARKS
MOLOKAI AIRPT  CLEAR     73  69  87 N6        30.11S
KALAUPAPA      NOT AVBL
MAKAPULAPAI*     N/A     75  68  78 SE8G17      N/A
MOLOKAI 1*     NOT AVBL
PUU ALII*        N/A     59  58  98 NE2         N/A
$$

HIZ016-301000-
KAHOOLAWE-

CITY           SKY/WX    TMP DP  RH WIND       PRES   REMARKS
KAHOOLAWE*     NOT AVBL
HAKIOAWA*        N/A     71  66  84 MISG      30.52F
HONOKANAIA*      N/A     78  69  73 NE12G20   30.03R
KANELOA*         N/A     73  68  83 E12G20    30.16R
KEALIALALO*    NOT AVBL
LUA MAKIKA*    NOT AVBL
$$

HIZ014>015-301000-
LANAI-

CITY           SKY/WX    TMP DP  RH WIND       PRES   REMARKS
LANAI CITY     FAIR      68  66  93 E6        30.16R
LANAI 1*       NOT AVBL
$$

HIZ017>028-301000-
MAUI-

CITY           SKY/WX    TMP DP  RH WIND       PRES   REMARKS
KAHULUI        PTCLDY    72  67  84 CALM      30.08S
KAPALUA-W MAUI NOT AVBL
HANA AIRPORT   MOCLDY    73  70  88 CALM      30.13S
HANA*            N/A     75 N/A N/A SE3         N/A
HALEAKALA SUMM   N/A     43  23  45 W6          N/A
MAALAEA BAY*     N/A     72 N/A N/A N5          N/A
HALEAKALA*     NOT AVBL
KAUPO GAP*     NOT AVBL
KULA 1*          N/A     48  37  66 E3          N/A
$$

HIZ023>026-301000-
BIG ISLAND OF HAWAII COAST AND LOWER SLOPES-

CITY           SKY/WX    TMP DP  RH WIND       PRES   REMARKS
KAILUA KONA    CLEAR     77  68  73 SE8       30.07S
HILO           PTCLDY    73  69  87 SW5       30.11S
HONOKAA*         N/A     66 N/A N/A VRB1        N/A
KAWAIHAE MWT*    N/A     79 N/A N/A NE3         N/A
KAWAIHAE*        N/A     79 N/A N/A W3        30.08S
SOUTH POINT*     N/A     70 N/A N/A N13G18      N/A
UPOLU AIRPORT* NOT AVBL
KAMUELA*       NOT AVBL
HAKALAU*         N/A     48  45  87 W5          N/A
KALOKO-HONOKO*   N/A     77  68  73 E5        30.07S
PALI 2*          N/A     64  61  88 S3G9        N/A
KEALAKOMO*       N/A     75  70  83 E3G16       N/A
KAUPULEHU*       N/A     72  64  78 SE5         N/A
KAPAPALA*        N/A     67  67 100 N3          N/A
LOWER KAHUKU*    N/A    N/A N/A N/A VRB2G8      N/A
PUHE CS*         N/A     79  68  69 SW1         N/A
PUHO CS*         N/A     76  63  63 E2          N/A
PTA KEAMUKU*     N/A     61  55  82 CALM        N/A
WAIKOLOA*        N/A     73  64  73 E3          N/A
$$

HIZ027>028-301000-
BIG ISLAND OF HAWAII INTERIOR AND SUMMMITS-

CITY           SKY/WX    TMP DP  RH WIND       PRES   REMARKS
BRADSHAW FIELD CLOUDY    50  45  83 SE3       30.42S
MK VISITOR CEN   N/A     45  25  45 VRB3        N/A
MAUNA KEA*       N/A     36  -9  14 SW21        N/A  WCI  24
MAUNA LOA*       N/A     39  -4  16 MISG        N/A
MAUNA LOA 1*   NOT AVBL
PTA KIPUKA*      N/A     52  52 100 E2          N/A
PTA RANGE 17*    N/A     54  52  94 NE1         N/A
PTA WEST*        N/A     55  54  94 SE8         N/A
NENE CABIN*      N/A     52  52 100 NE3         N/A
AHUMOA*          N/A     48  39  71 E8          N/A
PTA PORTABLE*  NOT AVBL
PUU MALI*        N/A     54  37  54 SW3         N/A
$$

HIC003-301000-
NORTHWEST ISLANDS-

CITY           SKY/WX    TMP DP  RH WIND       PRES   REMARKS
MIDWAY ISLAND  PTCLDY    72  66  83 S5        30.12R
MIDWAY NOS*      N/A     72 N/A N/A MISG      30.11R
FRENCH FRIGATE NOT AVBL
$$

PHZ110>124-180-301000-
BUOY REPORTS

STATION/POSITION TIME  TEMP    WIND        PRES    WAVE   SWELL
                       AIR SEA DIR/SP/G            HT/PER HT/DIR
                 (UTC) (F)     (DEG/KT/KT) (MB)    (FT/S) (FT/D)
BUOY 51001       NOT AVBL
BUOY 51101       NOT AVBL
BUOY 51100       NOT AVBL
BUOY 51002       NOT AVBL
BUOY 51003       NOT AVBL
BUOY 51004       NOT AVBL
BARBERS PT BUOY  NOT AVBL
WAIMEA BAY BUOY  0902      78                N/A     3/10   2/ 30
KAILUA BAY BUOY  0904      80                N/A     4/11   2/ 50
LANAI BUOY       NOT AVBL
BARBERS PT 2     NOT AVBL
PAUWELA MAUI     0909      79                N/A     4/10   2/ 50
HILO             0812      79                N/A     5/11   2/ 60
KANEOHE BAY BUOY 0925      80                N/A     3/10   2/ 60
HANALEI KAUAI    0922      80                N/A     3/10   2/ 70
KAHULUI HARBOR   0912   76 81  310/  9/ 10 1018.9
HONOLULU HARBOR  0912   78 80  270/  2/  2 1019.9
KILO NALU        NOT AVBL
HILO HARBOR      0912   75 79  210/  4/  5 1019.2
MOKUOLOE         0836   78 82   60/  4/  6 1019.4R
NAWILIWILI       0918   73     240/  3/  4 1019.8
WHOTS BUOY       NOT AVBL
BUOY 51028       NOT AVBL
$$

......................KEY........................................
  SKY/WX - SKY CONDITIONS/PRESENT WEATHER
  TMP    - TEMPERATURE IN FAHRENHEIT
  DWPT   - DEWPOINT IN FAHRENHEIT
  RH     - RELATIVE HUMIDITY IN PERCENT
  WIND   - DIRECTION AND SPEED /MPH FOR ISLANDS...KTS FOR BUOYS/
  PRES   - MEAN SEA LEVEL PRESSURE IN INCHES OF HG
  VSB    - VISIBILITY IN MILES
  HX     - HEAT INDEX
  WCI    - WIND CHILL INDEX
  VRB    - VARIABLE WIND DIRECTION
  N/A    - NOT AVAILABLE




USA.gov is the U.S. government's official web portal to all federal, state and local government web resources and services.